Погода в Уломе

Россия / Новгородская область     58°27′21″N   35°22′39″E
темп.,
°C
ветер,
м/с
пор.,
м/с
влажн.,
%
обл.,
%
осадки,
мм/ч
давл.,
гПа
погр.,
м
17 мая, вт
вт1700:00+6сз4119596 0.0 1006598
03:00+6сз41097100 2.3 1006461
06:00+5сз4997100 2.1 1006500
09:00+6сз4894100 2.3 1007567
12:00+8ссз4789100 0.1 1008715
15:00+12сз476970 0.1 10071096
18:00+13с376547 0.3 10081544
21:00+7ссв3107238 0.3 1010277
18 мая, ср
ср1800:00+4с310855 0.0 1012249
03:00+2ссз39915 0.0 1014195
06:00+4ссз388614 0.0 1015234
09:00+8ссз4765100 0.0 1015771
12:00+9ссз5757100 0.0 10161498
15:00+9ссз5854100 0.0 10151759
18:00+9сз3859100 0.0 10151491
21:00+6зюз248269 0.0 101489
19 мая, чт
чт1900:00+6зсз41083100 0.3 1013644
03:00+6сз3991100 0.4 1013443
06:00+6сз379014 0.3 1014693
09:00+8ссз476240 0.4 10161552
12:00+11ссз463996 0.1 10162242
15:00+12ссз4734100 0.1 10162559
18:00+12с374499 0.0 10172153
21:00+6ссв256677 0.0 101995
20 мая, пт
пт2000:00+2св288378 0.0 1020223
03:00+1ссв2378100 0.0 102154
06:00+2св12722 0.0 1021153
09:00+8всв12494 0.0 1021888
12:00+12вюв1139100 0.0 10191453
15:00+13вюв1138100 0.0 10161758
18:00+12в2245100 0.0 10151488
21:00+7вюв2470100 0.0 101585
21 мая, сб
сб2100:00+4вюв2674100 0.0 1014131
03:00+2всв257219 0.0 1014109
06:00+4всв276755 0.0 1013200
09:00+10всв46498 0.0 10131110
12:00+13в453999 0.0 10112090
15:00+14в4436100 0.0 10102361
18:00+13в344285 0.0 10102047
21:00+6вюв24685 0.0 101161